FW7746 Weather Reports


time (UTC)temp
C
wind
direction
speed
KPH
gust
KPH
rain 1hr
cm
rain 24hr
cm
rain mn
cm
humidity
%
barometer
mb
20260507232603 26 145 0.0 4.8 0.00 0.00 0.00 19 1011.2
20260507232103 26 209 1.6 4.8 0.00 0.00 0.00 19 1011.3
20260507231603 26 243 1.6 4.8 0.00 0.00 0.00 19 1011.3
20260507231103 26 255 1.6 4.8 0.00 0.00 0.00 19 1011.2
20260507230603 26 338 0.0 0.0 0.00 0.00 0.00 21 1011.2
20260507230104 25 329 0.0 3.2 0.00 0.00 0.00 21 1011.4
20260507225604 25 61 1.6 4.8 0.00 0.00 0.00 20 1011.4
20260507225103 25 331 1.6 3.2 0.00 0.00 0.00 21 1011.4
20260507224604 25 336 0.0 8.0 0.00 0.00 0.00 21 1011.6
20260507224103 25 313 1.6 8.0 0.00 0.00 0.00 21 1011.5
20260507223603 25 307 1.6 14.5 0.00 0.00 0.00 21 1011.6
20260507223103 25 331 1.6 4.8 0.00 0.00 0.00 21 1011.5
20260507222604 25 325 3.2 4.8 0.00 0.00 0.00 21 1011.6
20260507222104 25 229 0.0 4.8 0.00 0.00 0.00 21 1011.6
20260507221604 25 332 3.2 9.7 0.00 0.00 0.00 20 1011.7
20260507221103 25 280 0.0 8.0 0.00 0.00 0.00 20 1011.8
20260507220603 25 320 4.8 14.5 0.00 0.00 0.00 20 1011.8
20260507215104 26 323 3.2 14.5 0.00 0.00 0.00 20 1011.7
20260507214604 26 172 1.6 4.8 0.00 0.00 0.00 20 1011.8
20260507214104 25 327 1.6 4.8 0.00 0.00 0.00 21 1011.8
20260507213604 25 345 3.2 14.5 0.00 0.00 0.00 21 1011.8
20260507213104 25 326 0.0 8.0 0.00 0.00 0.00 22 1011.6
20260507211603 26 321 3.2 4.8 0.00 0.00 0.00 21 1012.0
20260507211104 26 330 1.6 4.8 0.00 0.00 0.00 22 1012.2
20260507210603 26 301 1.6 4.8 0.00 0.00 0.00 22 1012.2
20260507210104 26 250 0.0 3.2 0.00 0.00 0.00 21 1012.2
20260507205603 26 249 1.6 8.0 0.00 0.00 0.00 21 1012.2
20260507205103 26 294 0.0 3.2 0.00 0.00 0.00 22 1012.3
20260507204104 25 287 0.0 1.6 0.00 0.00 0.00 22 1012.5
20260507202604 24 341 1.6 3.2 0.00 0.00 0.00 24 1012.7
20260507202103 24 322 1.6 4.8 0.00 0.00 0.00 25 1012.6
20260507201603 23 276 0.0 4.8 0.00 0.00 0.00 25 1012.6
20260507201103 23 324 0.0 4.8 0.00 0.00 0.00 25 1012.7
20260507200603 23 325 3.2 9.7 0.00 0.00 0.00 26 1012.7
20260507200104 23 327 4.8 16.1 0.00 0.00 0.00 25 1012.7
20260507195604 23 324 1.6 12.9 0.00 0.00 0.00 25 1012.8
20260507195104 23 324 4.8 16.1 0.00 0.00 0.00 26 1012.8
20260507194603 23 305 3.2 8.0 0.00 0.00 0.00 26 1012.8
20260507194104 23 325 1.6 11.3 0.00 0.00 0.00 26 1013.0
20260507193604 23 326 4.8 14.5 0.00 0.00 0.00 27 1012.9
20260507192604 23 333 3.2 9.7 0.00 0.00 0.00 24 1013.0
20260507192103 24 325 1.6 4.8 0.00 0.00 0.00 24 1013.0
20260507191603 23 319 1.6 8.0 0.00 0.00 0.00 25 1013.1
20260507191103 23 67 0.0 1.6 0.00 0.00 0.00 26 1013.2
20260507190603 23 71 0.0 3.2 0.00 0.00 0.00 25 1013.3
20260507190104 23 92 1.6 8.0 0.00 0.00 0.00 25 1013.2
20260507185603 23 312 1.6 4.8 0.00 0.00 0.00 25 1013.2
20260507185103 23 210 1.6 12.9 0.00 0.00 0.00 26 1013.2
20260507184603 23 328 3.2 14.5 0.00 0.00 0.00 25 1013.1
20260507183604 23 216 1.6 12.9 0.00 0.00 0.00 24 1013.1
20260507183103 23 42 0.0 4.8 0.00 0.00 0.00 22 1013.1
20260507182604 23 102 0.0 4.8 0.00 0.00 0.00 23 1013.3
20260507182103 23 57 1.6 8.0 0.00 0.00 0.00 22 1013.3
20260507181103 22 93 0.0 0.0 0.00 0.00 0.00 23 1013.5
20260507180603 22 83 0.0 4.8 0.00 0.00 0.00 24 1013.6
20260507175604 22 86 0.0 4.8 0.00 0.00 0.00 26 1013.7
20260507175104 22 206 0.0 4.8 0.00 0.00 0.00 27 1013.8
20260507174103 21 162 0.0 1.6 0.00 0.00 0.00 28 1013.8
20260507173603 21 163 0.0 4.8 0.00 0.00 0.00 28 1013.9
20260507173104 21 151 0.0 4.8 0.00 0.00 0.00 29 1014.1
20260507172604 21 98 1.6 8.0 0.00 0.00 0.00 28 1014.2
20260507172103 20 83 0.0 0.0 0.00 0.00 0.00 29 1014.2
20260507171603 20 77 0.0 4.8 0.00 0.00 0.00 31 1014.2
20260507171104 20 355 0.0 3.2 0.00 0.00 0.00 33 1014.3
20260507170604 19 268 0.0 0.0 0.00 0.00 0.00 34 1014.3
20260507170104 19 269 0.0 0.0 0.00 0.00 0.00 34 1014.3
20260507165603 19 269 0.0 0.0 0.00 0.00 0.00 34 1014.3
20260507165104 19 269 0.0 4.8 0.00 0.00 0.00 34 1014.3
20260507164604 19 336 0.0 3.2 0.00 0.00 0.00 35 1014.3
20260507164104 18 294 0.0 4.8 0.00 0.00 0.00 36 1014.3
20260507163103 18 178 0.0 3.2 0.00 0.00 0.00 37 1014.3
20260507162603 18 159 1.6 8.0 0.00 0.00 0.00 37 1014.4
20260507162104 18 137 0.0 1.6 0.00 0.00 0.00 38 1014.3
20260507161603 17 87 0.0 1.6 0.00 0.00 0.00 37 1014.3
20260507160603 17 143 0.0 4.8 0.00 0.00 0.00 40 1014.3
20260507160104 17 214 0.0 4.8 0.00 0.00 0.00 40 1014.4
20260507155604 17 225 0.0 4.8 0.00 0.00 0.00 40 1014.3
20260507155103 17 246 1.6 8.0 0.00 0.00 0.00 41 1014.5
20260507154603 16 232 1.6 4.8 0.00 0.00 0.00 41 1014.5
20260507154105 16 227 0.0 9.7 0.00 0.00 0.00 42 1014.4
20260507153603 16 257 1.6 8.0 0.00 0.00 0.00 42 1014.4
20260507153103 16 206 0.0 1.6 0.00 0.00 0.00 43 1014.4
20260507152604 16 175 0.0 3.2 0.00 0.00 0.00 43 1014.4
20260507152103 16 236 0.0 0.0 0.00 0.00 0.00 45 1014.5
20260507151603 15 236 0.0 0.0 0.00 0.00 0.00 46 1014.5
20260507151104 15 236 0.0 3.2 0.00 0.00 0.00 46 1014.5
20260507150603 15 238 0.0 4.8 0.00 0.00 0.00 47 1014.5
20260507150103 15 247 1.6 4.8 0.00 0.00 0.00 46 1014.5
20260507145604 15 214 0.0 4.8 0.00 0.00 0.00 49 1014.4
20260507145103 14 224 0.0 3.2 0.00 0.00 0.00 50 1014.4
20260507144603 14 232 0.0 3.2 0.00 0.00 0.00 50 1014.5
20260507144104 13 238 0.0 3.2 0.00 0.00 0.00 51 1014.5
20260507143603 13 238 1.6 4.8 0.00 0.00 0.00 52 1014.5
20260507143103 13 242 1.6 9.7 0.00 0.00 0.00 55 1014.5
20260507142103 12 246 0.0 4.8 0.00 0.00 0.00 57 1014.3
20260507141603 12 246 0.0 8.0 0.00 0.00 0.00 58 1014.2
20260507140603 12 243 1.6 4.8 0.00 0.00 0.00 58 1014.2
20260507140103 12 207 0.0 4.8 0.00 0.00 0.00 58 1014.2
20260507135604 11 215 0.0 3.2 0.00 0.00 0.00 59 1014.1
20260507135103 11 158 0.0 0.0 0.00 0.00 0.00 59 1014.1
20260507134603 11 196 0.0 1.6 0.00 0.00 0.00 59 1014.0
20260507134104 11 205 0.0 1.6 0.00 0.00 0.00 58 1014.0
20260507133603 11 206 0.0 3.2 0.00 0.00 0.00 58 1014.1
20260507132603 11 209 0.0 4.8 0.00 0.00 0.00 58 1013.8
20260507132103 11 169 0.0 4.8 0.00 0.00 0.00 58 1013.8
20260507131103 11 229 0.0 4.8 0.00 0.00 0.00 58 1013.7
20260507130104 11 184 0.0 4.8 0.00 0.00 0.00 58 1013.8
20260507125603 11 173 0.0 4.8 0.00 0.00 0.00 59 1013.8
20260507125104 11 262 0.0 1.6 0.00 0.00 0.00 60 1013.8
20260507124603 11 229 0.0 3.2 0.00 0.00 0.00 60 1013.9
20260507124104 11 225 0.0 1.6 0.00 0.00 0.00 60 1013.9
20260507123604 11 233 0.0 4.8 0.00 0.00 0.00 60 1013.9
20260507123103 11 198 0.0 4.8 0.00 0.00 0.00 59 1013.9
20260507122104 11 185 1.6 9.7 0.00 0.00 0.00 60 1014.0
20260507121103 11 231 0.0 1.6 0.00 0.00 0.00 61 1013.9
20260507120603 11 236 0.0 4.8 0.00 0.00 0.00 61 1014.0
20260507120104 11 193 0.0 1.6 0.00 0.00 0.00 62 1014.0
20260507115604 11 194 0.0 0.0 0.00 0.00 0.00 63 1014.1
20260507115103 11 195 0.0 0.0 0.00 0.00 0.00 63 1014.0
20260507114604 11 195 0.0 4.8 0.00 0.00 0.00 64 1014.0
20260507114104 11 200 0.0 1.6 0.00 0.00 0.00 64 1014.1
20260507113604 11 202 0.0 0.0 0.00 0.00 0.00 64 1014.1
20260507113104 11 202 0.0 0.0 0.00 0.00 0.00 63 1014.2
20260507112604 11 202 0.0 3.2 0.00 0.00 0.00 63 1014.1
20260507112103 11 192 0.0 1.6 0.00 0.00 0.00 63 1014.1
20260507111604 11 227 0.0 0.0 0.00 0.00 0.00 62 1014.2
20260507111103 11 229 0.0 0.0 0.00 0.00 0.00 62 1014.2
20260507110104 11 179 0.0 0.0 0.00 0.00 0.00 62 1014.1
20260507105609 11 180 0.0 0.0 0.00 0.00 0.00 61 1014.1
20260507104604 11 178 0.0 0.0 0.00 0.00 0.00 61 1014.1
20260507104103 12 175 0.0 0.0 0.00 0.00 0.00 61 1014.0
20260507103604 12 174 0.0 1.6 0.00 0.00 0.00 61 1014.0
20260507103103 12 169 0.0 0.0 0.00 0.00 0.00 61 1014.0
20260507102603 12 167 0.0 0.0 0.00 0.00 0.00 61 1014.0
20260507102104 12 169 0.0 0.0 0.00 0.00 0.00 61 1014.1
20260507101603 12 169 0.0 1.6 0.00 0.00 0.00 61 1014.2
20260507101104 12 173 0.0 3.2 0.00 0.00 0.00 61 1014.1
20260507100103 12 161 0.0 1.6 0.00 0.00 0.00 60 1014.2
20260507094104 12 194 0.0 1.6 0.00 0.00 0.00 61 1014.4
20260507093603 12 203 0.0 1.6 0.00 0.00 0.00 61 1014.5
20260507093104 12 164 0.0 3.2 0.00 0.00 0.00 61 1014.5
20260507092604 12 146 0.0 0.0 0.00 0.00 0.00 61 1014.6
20260507092103 12 145 0.0 0.0 0.00 0.00 0.00 61 1014.6
20260507091604 12 138 0.0 1.6 0.00 0.00 0.00 61 1014.7
20260507091103 12 292 0.0 0.0 0.00 0.00 0.00 61 1014.7
20260507090604 12 304 0.0 1.6 0.00 0.00 0.00 62 1014.8
20260507090105 12 322 0.0 0.0 0.00 0.00 0.00 62 1014.8
20260507085604 12 322 0.0 0.0 0.00 0.00 0.00 63 1015.0
20260507084604 11 324 0.0 0.0 0.00 0.00 0.00 65 1015.1
20260507084103 11 325 0.0 0.0 0.00 0.00 0.00 65 1015.0
20260507083604 11 325 0.0 0.0 0.00 0.00 0.00 65 1015.0
20260507083103 11 325 0.0 0.0 0.00 0.00 0.00 66 1015.0
20260507082604 11 325 0.0 0.0 0.00 0.00 0.00 67 1015.0
20260507082103 11 325 0.0 0.0 0.00 0.00 0.00 67 1014.9
20260507081604 11 325 0.0 0.0 0.00 0.00 0.00 67 1015.1
20260507081103 11 325 0.0 0.0 0.00 0.00 0.00 67 1015.1
20260507080603 11 325 0.0 0.0 0.00 0.00 0.00 67 1015.0
20260507080104 11 325 0.0 0.0 0.00 0.00 0.00 66 1015.1
20260507075603 11 325 0.0 0.0 0.00 0.00 0.00 65 1015.1
20260507075104 11 325 0.0 0.0 0.00 0.00 0.00 64 1015.1
20260507074603 11 325 0.0 0.0 0.00 0.00 0.00 64 1015.2
20260507074104 11 325 0.0 0.0 0.00 0.00 0.00 63 1015.2
20260507073603 12 325 0.0 0.0 0.00 0.00 0.00 62 1015.2
20260507073104 12 325 0.0 0.0 0.00 0.00 0.00 62 1015.3
20260507072604 12 325 0.0 0.0 0.00 0.00 0.00 61 1015.2
20260507072103 12 325 0.0 0.0 0.00 0.00 0.00 61 1015.2
20260507071604 12 325 0.0 0.0 0.00 0.00 0.00 61 1015.3
20260507071103 12 325 0.0 0.0 0.00 0.00 0.00 60 1015.2
20260507065604 13 325 0.0 0.0 0.00 0.00 0.00 59 1015.3
20260507065104 13 325 0.0 0.0 0.00 0.00 0.00 58 1015.3
20260507064604 13 325 0.0 0.0 0.00 0.00 0.00 58 1015.3
20260507064104 13 325 0.0 0.0 0.00 0.00 0.00 58 1015.2
20260507063604 13 325 0.0 0.0 0.00 0.00 0.00 59 1015.3
20260507063104 13 325 0.0 0.0 0.00 0.00 0.00 59 1015.3
20260507062603 13 325 0.0 0.0 0.00 0.00 0.00 59 1015.3
20260507062104 13 325 0.0 0.0 0.00 0.00 0.00 59 1015.3
20260507061603 13 325 0.0 0.0 0.00 0.00 0.00 59 1015.3
20260507061104 13 325 0.0 0.0 0.00 0.00 0.00 59 1015.4
20260507060603 14 325 0.0 0.0 0.00 0.00 0.00 58 1015.4
20260507060104 14 325 0.0 0.0 0.00 0.00 0.00 57 1015.4
20260507055604 14 325 0.0 0.0 0.00 0.00 0.00 57 1015.5
20260507055104 14 325 0.0 0.0 0.00 0.00 0.00 56 1015.4
20260507054604 15 325 0.0 0.0 0.00 0.00 0.00 56 1015.5
20260507053603 15 325 0.0 0.0 0.00 0.00 0.00 56 1015.6
20260507053104 15 325 0.0 0.0 0.00 0.00 0.00 55 1015.6
20260507052604 15 325 0.0 0.0 0.00 0.00 0.00 54 1015.6
20260507052104 15 325 0.0 0.0 0.00 0.00 0.00 53 1015.7
20260507051603 15 325 0.0 0.0 0.00 0.00 0.00 53 1015.7
20260507051103 16 325 0.0 0.0 0.00 0.00 0.00 52 1015.7
20260507050104 16 325 0.0 0.0 0.00 0.00 0.00 51 1015.6
20260507045604 16 325 0.0 0.0 0.00 0.00 0.00 50 1015.5
20260507045103 16 325 0.0 0.0 0.00 0.00 0.00 51 1015.5
20260507044604 16 325 0.0 0.0 0.00 0.00 0.00 51 1015.5
20260507044104 16 325 0.0 0.0 0.00 0.00 0.00 50 1015.5
20260507043604 16 325 0.0 0.0 0.00 0.00 0.00 50 1015.4
20260507043104 16 325 0.0 0.0 0.00 0.00 0.00 51 1015.4
20260507042103 17 325 0.0 0.0 0.00 0.00 0.00 50 1015.3
20260507041603 17 325 0.0 0.0 0.00 0.00 0.00 49 1015.3
20260507041104 17 325 0.0 0.0 0.00 0.00 0.00 49 1015.2
20260507040604 17 325 0.0 0.0 0.00 0.00 0.00 49 1015.1
20260507040104 17 323 0.0 0.0 0.00 0.00 0.00 49 1015.1
20260507035604 17 323 0.0 3.2 0.00 0.00 0.00 49 1015.0
20260507034604 17 324 0.0 0.0 0.00 0.00 0.00 49 1015.0
20260507034103 17 325 1.6 9.7 0.00 0.00 0.00 48 1014.9
20260507032604 18 328 1.6 4.8 0.00 0.00 0.00 46 1014.7
20260507031604 18 329 0.0 3.2 0.00 0.00 0.00 45 1014.7
20260507030604 18 323 0.0 4.8 0.00 0.00 0.00 44 1014.5
20260507025604 18 317 0.0 0.0 0.00 0.00 0.00 43 1014.4
20260507025104 19 314 0.0 0.0 0.00 0.00 0.00 42 1014.3
20260507024604 19 314 1.6 4.8 0.00 0.00 0.00 42 1014.3
20260507024103 19 314 0.0 1.6 0.00 0.00 0.00 43 1014.3
20260507023604 19 327 0.0 4.8 0.00 0.00 0.00 42 1014.3
20260507022604 20 323 1.6 4.8 0.00 0.00 0.00 40 1014.2
20260507022103 20 277 0.0 3.2 0.00 0.00 0.00 40 1014.1
20260507021604 20 238 0.0 1.6 0.00 0.00 0.00 39 1014.0
20260507021104 20 229 0.0 3.2 0.00 0.00 0.00 39 1013.9
20260507020604 20 300 0.0 3.2 0.00 0.00 0.00 38 1014.0
20260507020104 21 294 0.0 3.2 0.00 0.00 0.00 37 1013.9
20260507015604 21 304 0.0 4.8 0.00 0.00 0.00 37 1014.0
20260507015104 21 224 0.0 4.8 0.00 0.00 0.00 38 1013.9
20260507014604 21 294 0.0 9.7 0.00 0.00 0.00 36 1014.0
20260507014103 21 323 1.6 4.8 0.00 0.00 0.00 36 1013.8
20260507013604 22 317 1.6 4.8 0.00 0.00 0.00 36 1013.8
20260507013104 22 324 4.8 19.3 0.00 0.00 0.00 36 1013.9
20260507012604 22 333 3.2 14.5 0.00 0.00 0.00 37 1013.8
20260507012103 22 319 3.2 14.5 0.00 0.00 0.00 38 1013.8
20260507011603 22 327 3.2 19.3 0.00 0.00 0.00 37 1013.8
20260507011104 21 258 1.6 4.8 0.00 0.00 0.00 37 1013.9
20260507010104 21 293 1.6 9.7 0.00 0.00 0.00 35 1013.9
20260507005604 21 297 0.0 4.8 0.00 0.00 0.00 35 1013.8
20260507005103 22 318 3.2 19.3 0.00 0.00 0.00 35 1013.8
20260507004604 22 321 4.8 16.1 0.00 0.00 0.00 35 1013.6
20260507004104 22 329 1.6 16.1 0.00 0.00 0.00 35 1013.6
20260507003604 22 322 3.2 12.9 0.00 0.00 0.00 36 1013.5
20260507002604 22 327 11.3 27.4 0.00 0.00 0.00 33 1013.4
20260507002103 23 327 12.9 27.4 0.00 0.00 0.00 31 1013.4
20260507001603 23 292 6.4 24.1 0.00 0.00 0.00 31 1013.3
20260507001104 23 328 4.8 22.5 0.00 0.00 0.00 31 1013.3
20260507000604 23 318 8.0 27.4 0.00 0.00 0.00 31 1013.2
20260507000104 23 277 4.8 22.5 0.00 0.00 0.00 30 1013.0
20260506235604 23 320 8.0 25.7 0.00 0.00 0.00 30 1013.1
20260506234104 24 320 8.0 22.5 0.00 0.00 0.00 28 1013.1
20260506233604 24 323 9.7 29.0 0.00 0.00 0.00 30 1013.0
20260506233104 25 330 6.4 20.9 0.00 0.00 0.00 29 1013.0